This is the latest recevied weather packets stored in our database for station/object K2ATL. If no packets are shown the sender has not sent any weather packets the latest 10 day(s).
| Time | Temp. | Humidity | Pressure | Rain* | Wind** | Luminosity | Snow |
|---|---|---|---|---|---|---|---|
| 1777740298 | 13.89° C | 50% | 1098 hPa | 0 mm | - | 853 W/m² | - |
| 1777739995 | 13.89° C | 52% | 1098.1 hPa | 0 mm | - | 876 W/m² | - |
| 1777739690 | 13.33° C | 51% | 1098.1 hPa | 0 mm | - | 887 W/m² | - |
| 1777739388 | 13.89° C | 52% | 1097.9 hPa | 0 mm | - | 901 W/m² | - |
| 1777739085 | 13.89° C | 53% | 1098 hPa | 0 mm | - | 870 W/m² | - |
| 1777738782 | 13.89° C | 56% | 1097.9 hPa | 0 mm | - | 872 W/m² | - |
| 1777738478 | 13.33° C | 56% | 1098 hPa | 0 mm | - | 899 W/m² | - |
| 1777738176 | 13.89° C | 55% | 1098.1 hPa | 0 mm | - | 900 W/m² | - |
| 1777737874 | 13.89° C | 56% | 1098.5 hPa | 0 mm | - | 907 W/m² | - |
| 1777737573 | 13.33° C | 57% | 1098.3 hPa | 0 mm | - | 649 W/m² | - |
| 1777737272 | 12.78° C | 59% | 1098.3 hPa | 0 mm | - | 871 W/m² | - |
| 1777736968 | 13.33° C | 57% | 1098 hPa | 0 mm | - | 861 W/m² | - |
| 1777736066 | 12.78° C | 60% | 1098.3 hPa | 0 mm | - | 808 W/m² | - |
| 1777735763 | 12.22° C | 63% | 1098.4 hPa | 0 mm | - | 828 W/m² | - |
| 1777735461 | 12.22° C | 61% | 1098.1 hPa | 0 mm | - | 845 W/m² | - |
| 1777735158 | 12.22° C | 62% | 1098.4 hPa | 0 mm | - | 588 W/m² | - |
| 1777734855 | 11.67° C | 62% | 1098.3 hPa | 0 mm | - | 780 W/m² | - |
| 1777734553 | 11.11° C | 64% | 1098 hPa | 0 mm | - | 539 W/m² | - |
| 1777734249 | 11.67° C | 65% | 1097.9 hPa | 0 mm | - | 817 W/m² | - |
| 1777733945 | 11.67° C | 64% | 1098 hPa | 0 mm | - | 457 W/m² | - |
| 1777733642 | 11.11° C | 64% | 1098 hPa | 0 mm | - | 607 W/m² | - |
| 1777733338 | 11.67° C | 65% | 1097.9 hPa | 0 mm | - | 282 W/m² | - |
| 1777733035 | 11.67° C | 67% | 1097.8 hPa | 0 mm | - | 301 W/m² | - |
| 1777732731 | 11.67° C | 64% | 1098.1 hPa | 0 mm | - | 866 W/m² | - |
| 1777732428 | 10.56° C | 63% | 1097.7 hPa | 0 mm | - | 410 W/m² | - |
* Rain latest hour (hover to see other rain measurements)
** Current wind speed in m/s (hover to see current wind gust speed)